Regional Weather Roundup
Issued by NWS

Home | Current Version | Previous Version | Text Only | Print | Product List | Glossary On
Versions: 1 2 3 4 5 6 7 8 9 10 11 12 13 14 15 16 17 18 19 20 21 22 23 24 25 26 27 28 29 30 31 32 33 34 35 36 37 38 39 40 41 42 43 44 45 46 47 48 49 50
000
ASUS43 KMKX 201221
RWRWI

WISCONSIN REGIONAL WEATHER ROUNDUP
NATIONAL WEATHER SERVICE MILWAUKEE/SULLIVAN WI
700 AM CDT SUN APR 20 2014

NOTE: "FAIR" INDICATES FEW OR NO CLOUDS BELOW 12,000 FEET WITH NO
SIGNIFICANT WEATHER AND/OR OBSTRUCTIONS TO VISIBILITY.

WIZ001-002-006>008-014>016-023>028-201300-
NORTHWEST WISCONSIN

CITY           SKY/WX    TMP DP  RH WIND       PRES   REMARKS
SUPERIOR ARPT  CLEAR     29  28  97 SW3       30.06S FOG
6HR MIN TEMP:  25; 6HR MAX TEMP:  29;

ASHLAND        FOG       39  39 100 W6        30.05S VSB 1/2 WCI  35
6HR MIN TEMP:  35; 6HR MAX TEMP:  43;

HAYWARD        CLOUDY    34  33  96 CALM      30.06R FOG
6HR MIN TEMP:  33; 6HR MAX TEMP:  45;

SIREN          FOG       33  33  99 S5        30.06R VSB<1/4 WCI  29
6HR MIN TEMP:  31; 6HR MAX TEMP:  37;

RICE LAKE      FOG       40  39  97 CALM      30.07R VSB<1/4
6HR MIN TEMP:  40; 6HR MAX TEMP:  49; 6HR PCP:  0.24;

LADYSMITH      CLOUDY    48  47  95 CALM      30.06R
6HR MIN TEMP:  47; 6HR MAX TEMP:  53; 6HR PCP:  0.15;

EAU CLAIRE     CLOUDY    51  49  92 CALM      30.04R
6HR MIN TEMP:  51; 6HR MAX TEMP:  57; 6HR PCP:  0.03;

MENOMONIE      CLOUDY    49  48  96 CALM      30.04R FOG
6HR MIN TEMP:  49; 6HR MAX TEMP:  57; 6HR PCP:  0.02;

NEW RICHMOND   FOG       44  44 100 N9        30.06R VSB<1/4
6HR MIN TEMP:  44; 6HR MAX TEMP:  52; 6HR PCP:  0.24;

OSCEOLA        FOG       45  45 100 CALM      30.09R VSB<1/4
6HR MIN TEMP:  43; 6HR MAX TEMP:  51; 6HR PCP:  0.01;

$$

WIZ003>005-009-010-017-018-201300-
NORTH CENTRAL WISCONSIN

CITY           SKY/WX    TMP DP  RH WIND       PRES   REMARKS
WOODRUFF       MOCLDY    44  38  80 S3        30.06S
6HR MIN TEMP:  44; 6HR MAX TEMP:  49;

RHINELANDER    CLOUDY    48  39  71 S7        30.07R
6HR MIN TEMP:  46; 6HR MAX TEMP:  50; 6HR PCP:  0.03;

EAGLE RIVER    CLOUDY    39  39  99 CALM      30.06S FOG
6HR MIN TEMP:  39; 6HR MAX TEMP:  47; 6HR PCP:  0.04;

LAND O LAKES   CLOUDY    45  39  79 CALM      30.07R
6HR MIN TEMP:  45; 6HR MAX TEMP:  48;

PHILLIPS       CLOUDY    44  44  99 CALM      30.05R FOG
6HR MIN TEMP:  44; 6HR MAX TEMP:  49; 6HR PCP:  0.02;

TOMAHAWK       CLOUDY    48  40  74 CALM      30.07R
6HR MIN TEMP:  41; 6HR MAX TEMP:  48; 6HR PCP:  0.02;

MEDFORD        CLOUDY    47  44  88 S3        30.07R
6HR MIN TEMP:  47; 6HR MAX TEMP:  52;

MERRILL        LGT RAIN  49  43  79 CALM      30.07S
6HR MIN TEMP:  46; 6HR MAX TEMP:  54;

$$

WIZ029-030-035-036-043>047-201300-
CENTRAL WISCONSIN

CITY           SKY/WX    TMP DP  RH WIND       PRES   REMARKS
WAUSAU         CLOUDY    49  42  77 S12       30.06S
6HR MIN TEMP:  48; 6HR MAX TEMP:  55; 6HR PCP:  0.04;

MOSINEE        LGT RAIN  48  45  87 SE7       30.10R
MARSHFIELD     CLOUDY    51  43  74 S12       30.07S
6HR MIN TEMP:  50; 6HR MAX TEMP:  57; 6HR PCP:  0.05;

STEVENS POINT  CLOUDY    51  38  60 CALM      30.11R
6HR MIN TEMP:  50; 6HR MAX TEMP:  53;

WAUPACA        CLOUDY    54  43  66 SE5       30.13S
WAUTOMA        CLOUDY    55  39  54 S8        30.13R
6HR MIN TEMP:  54; 6HR MAX TEMP:  56;

WISC RAPIDS    CLOUDY    56  37  49 S6        30.10S
6HR MIN TEMP:  54; 6HR MAX TEMP:  60; 6HR PCP: TRACE;

CAMP DOUGLAS   CLOUDY    59  41  51 SE7       30.09R
6HR MIN TEMP:  58; 6HR MAX TEMP:  61;

$$

WIZ011>013-019>022-031-037>040-048>050-201300-
NORTHEAST WISCONSIN

CITY           SKY/WX    TMP DP  RH WIND       PRES   REMARKS
ANTIGO         CLOUDY    44  42  90 S9        30.09R
6HR MIN TEMP:  43; 6HR MAX TEMP:  45; 6HR PCP:  0.02;

STURGEON BAY   CLOUDY    39  34  81 S13       30.18S WCI  32
6HR MIN TEMP:  39; 6HR MAX TEMP:  46;

GREEN BAY      CLOUDY    49  42  77 S5        30.16R
6HR MIN TEMP:  49; 6HR MAX TEMP:  52; 6HR PCP: TRACE;

MANITOWOC      LGT RAIN  41  34  76 S12       30.19R
6HR MIN TEMP:  41; 6HR MAX TEMP:  46; 6HR PCP: TRACE;

APPLETON       DRIZZLE   48  41  76 S7        30.16R
CLINTONVILLE   RAIN      50  41  71 S3        30.13R
OSHKOSH        CLOUDY    50  40  68 S13       30.14S
6HR MIN TEMP:  50; 6HR MAX TEMP:  54; 6HR PCP: TRACE;

$$

WIZ032>034-041-042-053>061-201300-
SOUTHWEST WISCONSIN

CITY           SKY/WX    TMP DP  RH WIND       PRES   REMARKS
LA CROSSE      CLOUDY    58  42  55 N3        30.09R
6HR MIN TEMP:  58; 6HR MAX TEMP:  63; 6HR PCP: TRACE;

SPARTA         CLOUDY    61  38  43 S6        30.09S
6HR MIN TEMP:  61; 6HR MAX TEMP:  64;

VIROQUA        CLOUDY    56  43  62 S9        30.10R
6HR MIN TEMP:  55; 6HR MAX TEMP:  60;

BOSCOBEL       CLOUDY    61  40  45 S7        30.11R
6HR MIN TEMP:  60; 6HR MAX TEMP:  63;

PRAIRIE DU CHI CLOUDY    62  38  42 S8        30.09S
6HR MIN TEMP:  61; 6HR MAX TEMP:  64;

PLATTEVILLE    FAIR      53  39  59 S6        30.14S
6HR MIN TEMP:  53; 6HR MAX TEMP:  57;

$$

WIZ056-057-062-063-064-067-068-201300-
SOUTH CENTRAL WISCONSIN

CITY           SKY/WX    TMP DP  RH WIND       PRES   REMARKS
BARABOO/DELLS  CLOUDY    55  37  51 S9        30.12S
6HR MIN TEMP:  54; 6HR MAX TEMP:  56;

LONE ROCK      MOCLDY    55  41  59 CALM      30.13S
6HR MIN TEMP:  55; 6HR MAX TEMP:  63;

WATERTOWN      CLOUDY    50  37  60 S7        30.18R
6HR MIN TEMP:  46; 6HR MAX TEMP:  51;

MADISON        LGT RAIN  52  42  69 S12       30.15S
6HR MIN TEMP:  52; 6HR MAX TEMP:  55; 6HR PCP: TRACE;

MIDDLETON      CLOUDY    53  38  57 S5        30.15F
6HR MIN TEMP:  53; 6HR MAX TEMP:  57;

MONROE         CLOUDY    51  38  60 S13       30.15S
6HR MIN TEMP:  51; 6HR MAX TEMP:  54;

JANESVILLE     MOCLDY    54  34  47 S12       30.18R
$$

WIZ051-052-058>065-066-070>072-201300-
SOUTHEAST WISCONSIN

CITY           SKY/WX    TMP DP  RH WIND       PRES   REMARKS
MILWAUKEE      MOCLDY    48  34  58 S6        30.21R
6HR MIN TEMP:  46; 6HR MAX TEMP:  50;

WAUKESHA       CLEAR     46  34  61 S7        30.20R
MILWAUKEE/TIMM CLEAR     48  34  57 S8        30.20R
RACINE         MOCLDY    44  35  70 S7        30.22R
6HR MIN TEMP:  44; 6HR MAX TEMP:  49;

BURLINGTON     MOCLDY    46  36  68 S6        30.19S
6HR MIN TEMP:  33; 6HR MAX TEMP:  46;

KENOSHA        MOCLDY    48  33  56 S10       30.21R
6HR MIN TEMP:  43; 6HR MAX TEMP:  51;

FOND DU LAC    LGT RAIN  51  39  63 S10       30.15R
6HR MIN TEMP:  51; 6HR MAX TEMP:  54; 6HR PCP: TRACE;

SHEBOYGAN      CLOUDY    43  34  70 S7        30.19R
6HR MIN TEMP:  41; 6HR MAX TEMP:  46;

WEST BEND      CLOUDY    50  34  53 S5        30.18R
JUNEAU         CLOUDY    50  35  55 S12       30.18S
6HR MIN TEMP:  49; 6HR MAX TEMP:  51;

$$

LSZ147-162-201300-
LAKE SUPERIOR

STATION/POSITION TIME  TEMP    WIND        PRES    WAVE
                       AIR SEA DIR/SP/G            HT/PER
                 (UTC) (F)     (DEG/KT/KT) (MB)    (FT/S)
DEVILS ISLAND    1200   31     230/ 11/ 11 1018.2R
PORT WING        1100   28     160/  4/  5 1017.6S
SAXON HARBOR     1100           CALM  /  2 1016.9R
$$

LMZ867-665-643>646-201300-
LAKE MICHIGAN

STATION/POSITION TIME  TEMP    WIND        PRES    WAVE
                       AIR SEA DIR/SP/G            HT/PER
                 (UTC) (F)     (DEG/KT/KT) (MB)    (FT/S)
NORTHPORT PIER   1100   40     160/ 10/ 18 1021.3F
SISTER BAY       1109   38     180/ 26/ 32   N/A
KEWAUNEE LAKESHO 1200   39     180/ 17/ 19 1022.7R
SHEBOYGAN LAKESH 1200   40     180/ 13/ 14 1023.3R
PORT WASHINGTON  1140   40     190/  5/  8 1023.4R
MILWAUKEE LAKESH 1200   44     150/  7/  8   N/A
KENOSHA   LAKESH 1200   44     170/  8/ 10   N/A
$$

TC  - TEMPERATURE IN CELSIUS
VSB - VISIBILITY IN STATUTE MILES
WCI - WIND CHILL INDEX
HX  - HEAT INDEX




USA.gov is the U.S. government's official web portal to all federal, state and local government web resources and services.